This demonstration page uses our WeatherBlox Daily Observations layout. Learn more.

Left ArrowRight Arrow

39.08367, -84.50855

Hourly Observations for October 16, 2015

Temp ( °F °C ) Dew Point ( °F °C ) Humidity (%) Winds ( mph kmh ) Pressure ( in mb ) Visibility ( mi km ) Precip ( " mm )
12:53 am 00:53 Clear 62 16.7 31 -0.6 31 31 NNW 10 17 30.07 1018 10 16 0.00 0.00
1:53 am 01:53 Clear 58 14.4 36 2.2 44 44 N 12 19 30.09 1019 10 16 0.00 0.00
2:53 am 02:53 Clear 55 12.8 38 3.3 53 53 N 6 9 30.12 1020 10 16 0.00 0.00
3:53 am 03:53 Clear 46 7.8 40 4.4 79 79 Calm 30.14 1021 10 16 0.00 0.00
4:53 am 04:53 Clear 48 8.9 38 3.3 68 68 NW 8 13 30.16 1021 10 16 0.00 0.00
5:53 am 05:53 Clear 42 5.6 39 3.9 89 89 Calm 30.18 1022 10 16 0.00 0.00
6:53 am 06:53 Clear 40 4.4 39 3.9 97 97 Calm 30.20 1023 10 16 0.00 0.00
7:53 am 07:53 Sunny 40 4.4 39 3.9 97 97 Calm 30.22 1023 10 16 0.00 0.00
8:53 am 08:53 Sunny 44 6.7 42 5.6 93 93 Calm 30.24 1024 10 16 0.00 0.00
9:53 am 09:53 Sunny 54 12.2 40 4.4 59 59 WNW 8 13 30.26 1025 10 16 0.00 0.00
10:53 am 10:53 Sunny 57 13.9 40 4.4 53 53 W 9 15 30.26 1025 10 16 0.00 0.00
11:53 am 11:53 Sunny 59 15 39 3.9 48 48 W 14 22 30.25 1025 10 16 0.00 0.00
12:53 pm 12:53 Mostly Sunny 61 16.1 35 1.7 38 38 NW 12 19 30.24 1024 10 16 0.00 0.00
1:53 pm 13:53 Sunny 62 16.7 34 1.1 35 35 W 15 24 30.22 1023 10 16 0.00 0.00
2:53 pm 14:53 Sunny 63 17.2 32 0 31 31 WNW 12 19 30.20 1023 10 16 0.00 0.00
3:53 pm 15:53 Sunny 62 16.7 31 -0.6 31 31 WNW 12 19 30.20 1023 10 16 0.00 0.00
4:53 pm 16:53 Sunny 62 16.7 31 -0.6 31 31 W 14 22 30.20 1023 10 16 0.00 0.00
5:53 pm 17:53 Sunny 61 16.1 28 -2.2 29 29 W 9 15 30.20 1023 10 16 0.00 0.00
6:53 pm 18:53 Sunny 59 15 27 -2.8 29 29 WNW 6 9 30.21 1023 10 16 0.00 0.00
7:53 pm 19:53 Clear 57 13.9 27 -2.8 32 32 NW 3 6 30.23 1024 10 16 0.00 0.00
8:53 pm 20:53 Clear 54 12.2 28 -2.2 37 37 VRB 5 7 30.24 1024 10 16 0.00 0.00
9:53 pm 21:53 Clear 53 11.7 28 -2.2 38 38 NNW 7 11 30.24 1024 10 16 0.00 0.00
10:53 pm 22:53 Clear 50 10 30 -1.1 46 46 N 13 20 30.27 1025 10 16 0.00 0.00
11:53 pm 23:53 Clear 48 8.9 32 0 54 54 N 8 13 30.28 1026 10 16 0.00 0.00

Powered by AerisWeather